Theta_e
338 340 345 346 351 347 354 354 351 349 346 342 343 347 350 351 356 357 350 351 355 352 341 340 339 340 339 338 338 334 331 332 335 331 327 326 326 327 327 327 325 321 318 317 316 316 316 315 314
340 345 346 347 352 354 352 349 352 348 344 341 345 345 352 353 353 352 354 353 354 353 345 341 336 336 337 338 334 328 328 328 327 327 326 327 327 326 322 318 317 319 320 320 320 320 320 319 319
341 344 348 349 351 353 348 346 348 344 343 342 338 340 343 353 351 352 352 353 353 352 347 343 339 338 338 337 329 328 328 327 327 328 327 326 321 318 319 320 320 321 321 321 320 319 319 318 318
348 350 349 350 353 347 346 345 347 343 343 343 341 343 345 348 352 355 353 353 353 350 345 342 340 340 338 332 329 328 327 328 328 326 323 318 319 320 320 321 322 322 321 321 320 320 320 320 319
349 346 350 353 350 342 340 344 343 342 341 344 342 345 349 350 351 349 352 352 350 348 345 341 335 333 332 329 329 328 329 328 325 321 319 321 322 322 323 323 322 322 322 322 322 322 322 322 321
345 341 350 351 346 340 339 339 340 340 341 343 345 348 350 349 341 347 351 352 349 346 346 342 334 333 330 329 329 330 328 325 321 320 322 323 324 324 323 323 323 322 322 322 322 321 321 320 319
348 344 347 346 347 344 340 339 340 339 339 342 344 348 350 350 345 349 352 353 349 348 345 343 338 332 330 330 330 330 327 323 320 322 324 325 324 323 330 324 323 320 321 324 325 328 328 327 325
342 344 347 343 345 346 344 342 341 341 342 347 346 348 349 350 348 349 349 348 349 348 346 344 339 333 332 331 331 329 326 321 323 324 326 324 331 331 333 330 327 328 329 329 331 330 330 330 330
340 348 347 344 345 346 341 340 340 341 347 347 347 347 348 348 348 348 348 348 349 347 345 346 338 336 336 332 332 328 324 322 324 326 328 333 334 334 333 329 330 331 332 331 332 331 331 331 331
342 344 346 342 342 342 342 341 338 341 341 339 337 344 349 348 348 348 348 347 348 346 347 347 343 344 342 341 342 335 324 323 325 327 333 335 334 334 332 333 334 333 332 333 334 333 332 332 331
341 343 342 342 341 340 340 341 339 340 342 340 338 338 343 348 348 348 348 347 346 346 348 346 346 345 343 343 341 337 324 325 331 332 333 336 335 334 333 335 334 333 334 334 333 333 333 332 332
343 340 339 339 337 341 341 341 339 339 341 341 341 340 345 347 347 347 347 346 346 345 346 346 347 344 344 342 340 336 336 336 335 335 335 337 334 333 334 334 334 333 332 332 331 331 332 332 330
341 340 338 340 341 340 341 339 340 341 343 344 345 341 348 348 347 346 346 346 345 345 346 346 346 344 343 342 341 339 337 337 337 337 336 335 335 333 333 333 334 333 331 330 329 329 330 331 329
337 341 339 340 341 340 338 337 342 340 342 345 347 347 349 349 348 348 347 346 346 345 345 346 346 345 344 342 341 338 337 337 338 337 336 335 333 334 331 333 334 332 329 330 330 331 330 329 329
335 337 337 337 337 338 336 336 341 336 335 343 344 348 350 349 349 349 348 347 347 347 346 345 346 346 345 342 341 338 337 337 336 335 333 331 332 331 331 330 329 330 331 330 328 329 329 328 327
335 337 338 337 336 337 336 338 340 335 336 338 346 348 350 350 350 350 349 347 348 348 346 344 344 346 345 345 340 339 337 334 334 333 332 333 332 332 328 328 330 330 329 328 327 327 326 326 323
333 335 336 337 337 336 336 338 335 337 335 336 345 348 350 350 351 351 349 348 348 348 345 345 345 344 344 343 342 340 339 337 335 337 336 333 332 331 330 331 330 329 329 328 326 325 323 315 314
335 332 335 335 338 335 335 335 336 337 337 337 342 348 350 349 350 349 349 349 349 348 347 346 346 344 344 343 342 341 339 338 338 338 335 334 333 331 330 330 329 328 327 326 324 315 312 313 311
334 334 333 335 335 334 335 335 335 335 338 337 333 334 339 332 349 349 349 349 348 348 347 346 344 344 342 341 341 339 339 339 337 336 335 333 330 331 330 329 328 327 321 312 309 313 312 309 311
334 335 335 335 336 334 335 336 335 338 337 335 338 338 343 343 343 348 348 348 347 345 343 343 343 342 339 339 338 337 336 334 334 333 333 332 330 330 329 326 325 315 306 307 311 312 310 312 312
335 335 333 330 331 331 331 330 337 336 338 336 334 333 331 332 332 345 346 346 346 344 343 342 340 340 341 339 337 336 337 336 334 332 331 330 328 326 324 318 311 306 306 309 312 311 314 313 313
329 329 328 329 328 328 330 329 334 338 339 337 336 335 333 331 338 346 346 346 345 342 341 340 340 341 339 337 336 335 334 332 330 328 329 327 326 323 319 316 314 313 307 310 312 315 314 313 312
329 330 328 330 329 328 333 332 332 336 340 336 337 335 331 343 345 345 343 344 342 341 340 340 340 338 336 337 336 333 333 333 331 330 326 323 324 321 319 317 316 316 309 312 314 315 315 314 313
330 331 331 332 331 334 333 335 333 339 339 336 335 335 332 335 344 334 337 343 339 339 339 338 338 338 337 338 335 334 332 332 330 323 321 324 318 322 318 318 317 316 309 313 314 315 316 315 314
331 331 330 331 330 331 334 336 339 338 336 335 334 337 335 335 338 333 341 342 340 338 338 337 337 336 335 334 332 330 324 320 320 322 322 321 318 318 318 317 316 313 310 313 314 315 316 317 317
332 331 331 337 337 335 335 344 346 336 334 333 335 337 339 341 334 335 342 341 338 336 337 336 334 333 331 326 322 319 327 324 322 322 321 319 316 317 317 317 316 313 312 314 315 315 315 315 316
334 331 332 334 336 338 338 339 340 338 337 337 336 335 335 335 336 336 341 340 340 337 335 333 333 331 325 325 324 324 324 322 321 317 312 314 316 317 316 315 313 314 313 314 315 316 315 314 314
331 333 335 335 342 343 339 339 341 339 338 338 335 335 333 332 332 333 340 339 338 336 336 331 328 324 326 326 326 326 326 322 321 319 315 315 316 316 317 318 318 316 314 315 316 316 315 314 314
332 329 334 334 338 344 343 342 337 336 335 334 333 336 332 332 331 334 333 334 330 329 328 325 325 326 327 326 327 327 325 323 322 321 316 317 318 319 319 319 318 318 317 315 316 315 315 315 314
328 335 337 337 338 340 339 343 337 336 335 333 335 334 328 327 327 332 332 328 327 327 325 323 326 326 326 326 326 327 326 325 324 319 317 315 317 318 319 319 319 318 318 317 315 315 315 315 315
Wind_Speed
9 5 7 5 1 3 2 3 6 1 4 12 13 21 13 13 3 5 23 19 17 15 20 19 18 16 14 12 9 8 8 9 8 5 3 3 3 3 3 3 4 4 5 5 5 5 5 5 6
8 6 13 8 3 2 3 5 12 1 10 10 18 26 20 7 11 26 20 15 13 13 19 19 17 16 13 11 10 9 9 7 5 4 4 3 3 3 3 4 4 4 5 5 5 5 5 5 6
7 5 6 3 3 5 2 7 7 4 8 13 7 18 8 13 22 24 15 19 17 12 18 19 17 15 13 11 10 9 8 6 5 5 4 4 4 3 4 4 3 3 4 5 5 6 6 6 6
13 7 8 4 15 7 9 13 14 14 5 5 23 10 9 9 14 17 20 18 13 11 18 19 17 15 14 12 10 8 7 6 5 4 4 3 4 4 3 3 4 5 5 5 6 6 7 7 7
11 7 4 4 11 5 4 21 23 9 7 25 23 7 8 10 12 13 21 16 14 13 17 17 15 15 15 13 12 10 9 7 6 5 5 5 4 3 2 4 5 5 6 6 7 8 9 10 10
7 6 4 8 15 3 5 13 13 10 17 27 24 14 7 12 18 21 19 17 13 17 14 10 13 14 13 12 10 9 8 7 6 6 6 5 3 2 4 4 6 6 8 9 10 12 13 12 10
6 4 3 12 14 14 7 4 6 7 7 16 19 6 14 16 16 24 19 19 12 11 8 8 13 13 11 9 9 8 8 7 7 7 6 4 5 5 6 5 10 11 12 11 12 13 13 12 12
10 5 2 4 14 20 16 20 0 12 3 22 18 7 8 21 22 24 26 23 24 17 11 10 14 14 10 11 10 9 7 7 8 8 6 6 8 6 5 10 12 12 10 12 12 12 12 12 12
13 2 0 5 3 9 40 15 12 13 26 28 26 26 12 20 25 25 25 25 26 18 16 15 15 13 11 11 8 8 8 10 10 9 9 10 6 4 3 8 7 9 7 12 8 11 9 11 10
8 4 10 12 18 13 27 16 7 5 27 25 37 23 15 20 26 28 29 28 30 25 22 17 18 13 13 11 7 5 8 10 10 10 10 7 5 1 3 8 9 9 8 10 8 13 9 9 11
11 8 10 20 36 27 16 20 17 11 5 30 26 15 24 25 27 26 27 24 30 26 25 19 17 12 8 10 10 6 11 11 11 12 10 5 4 2 3 4 2 3 7 4 10 8 11 15 13
7 18 20 21 35 9 12 29 17 9 6 23 13 14 29 31 28 28 23 24 26 21 23 19 15 15 13 12 8 6 11 11 9 7 8 5 10 9 9 8 7 7 9 9 11 15 17 18 17
12 15 28 24 15 27 28 18 10 12 11 17 21 28 33 31 27 22 21 26 29 21 19 15 13 17 14 14 14 12 15 14 12 11 14 15 14 13 11 13 11 12 13 16 18 19 17 16 17
2 20 27 11 22 20 7 1 7 12 14 24 26 31 32 35 28 21 15 29 27 25 19 13 18 16 17 20 19 12 21 19 20 16 15 14 13 15 15 14 15 14 17 18 16 12 16 16 15
17 6 6 15 15 5 15 8 6 12 5 14 11 19 29 25 26 27 20 22 22 22 19 14 21 20 20 20 24 18 24 23 19 16 16 16 18 18 17 14 16 17 13 8 10 12 15 15 19
7 6 5 2 4 8 3 7 4 10 14 15 23 20 20 19 18 20 19 18 19 18 15 16 18 17 16 17 20 20 20 19 18 18 19 17 14 14 11 11 12 7 6 8 12 14 16 18 23
6 3 4 5 8 2 3 5 11 20 22 19 28 27 24 20 18 18 19 20 17 15 14 14 14 15 12 15 16 21 20 21 19 17 12 9 7 7 6 6 5 5 6 10 13 18 22 26 23
4 7 1 9 4 3 6 9 10 20 25 18 11 21 17 12 22 22 21 17 15 14 15 16 15 15 14 12 13 16 17 15 12 8 10 7 6 7 3 0 2 5 10 15 19 22 19 21 22
6 11 13 17 9 6 8 16 15 23 20 18 21 20 21 26 28 25 21 21 18 18 16 15 14 14 10 12 13 12 10 8 7 6 6 4 2 5 5 8 9 11 14 17 15 17 20 19 14
15 15 21 20 19 10 16 17 21 5 5 19 26 15 21 17 31 22 25 21 19 16 14 13 13 12 11 11 11 9 10 7 5 7 4 7 6 6 9 13 13 15 11 10 12 16 17 16 13
19 18 13 5 6 4 5 5 7 2 16 12 7 14 13 3 15 22 21 20 17 13 13 11 15 14 13 11 10 12 10 9 8 6 11 10 7 9 12 13 9 11 10 9 10 13 15 15 13
10 7 8 11 10 4 4 8 4 3 1 2 12 14 15 13 28 27 25 24 17 16 15 14 15 15 13 11 10 9 8 7 10 6 8 2 7 8 11 10 10 15 13 9 9 10 13 11 14
7 3 7 7 9 5 5 4 5 6 2 6 10 7 11 23 27 18 16 20 17 21 19 19 16 12 11 11 10 11 8 9 8 7 3 3 2 7 8 11 12 17 14 8 9 9 9 10 14
9 7 6 6 4 3 5 5 7 6 5 14 24 33 16 15 28 18 17 24 18 17 18 17 14 14 11 9 8 10 11 13 15 12 6 6 1 8 9 9 13 18 13 9 7 9 9 9 15
12 11 5 5 5 5 3 5 4 9 8 6 13 38 13 19 24 16 27 23 18 19 19 17 14 15 12 8 9 9 7 7 6 6 4 5 4 2 5 11 17 16 12 9 9 9 8 11 15
5 7 3 4 3 5 7 3 3 3 6 14 22 24 16 11 25 33 32 24 20 21 21 19 19 17 11 9 6 9 7 3 1 4 6 8 8 5 8 13 16 15 11 10 10 9 10 12 14
5 2 5 1 4 4 1 3 2 5 8 14 16 21 24 14 12 26 30 25 24 20 20 20 20 15 11 8 5 4 3 0 7 6 7 10 11 11 14 15 11 13 12 11 9 11 13 13 13
5 4 3 2 2 3 1 4 1 7 5 9 16 20 15 13 14 27 20 27 23 20 23 22 14 9 12 6 5 7 3 5 8 13 13 6 9 9 9 8 12 14 13 12 11 13 15 13 13
8 7 4 4 4 3 2 2 4 2 4 5 8 8 17 8 11 22 12 27 28 29 24 13 6 12 12 9 10 8 5 3 7 11 11 9 9 10 11 10 11 13 16 14 13 16 16 15 14
11 3 6 5 6 4 4 1 4 3 1 4 11 8 17 16 31 18 12 19 19 16 16 13 10 10 7 12 12 9 10 8 9 14 10 7 9 11 11 11 12 14 17 16 15 18 17 16 17
Wind_Direction
279 267 295 296 263 75 262 3 262 84 45 72 71 94 87 51 43 147 144 179 183 161 168 166 163 161 162 161 159 155 152 154 165 163 115 107 105 95 76 58 35 23 14 9 357 352 341 330 321
311 284 297 280 115 296 143 106 280 132 136 150 122 100 85 76 103 132 148 192 187 168 172 170 166 166 166 165 164 166 160 163 167 151 134 120 99 77 61 52 48 39 28 14 359 353 350 339 333
313 261 267 153 268 212 141 211 216 223 173 185 91 88 75 121 121 146 189 186 182 174 179 174 170 172 173 171 172 167 160 166 153 149 140 132 108 91 75 60 48 38 32 23 10 359 356 350 345
3 340 260 118 245 265 164 184 207 245 183 173 114 82 78 134 155 172 177 178 185 188 177 173 171 173 175 178 177 169 165 163 151 144 132 112 106 97 88 73 41 25 26 22 16 11 3 1 358
29 23 2 308 235 96 102 176 198 159 176 115 103 97 91 102 144 163 164 170 184 176 171 169 172 175 176 178 177 171 166 162 160 153 139 128 115 104 72 43 35 22 18 16 15 7 1 1 1
55 55 29 323 315 55 161 151 155 107 106 112 109 111 101 147 145 162 153 151 161 136 145 163 182 187 186 182 177 173 166 164 165 147 136 135 122 78 47 40 39 22 13 13 17 21 23 15 6
108 112 232 290 337 347 323 59 22 94 170 125 133 93 140 157 145 148 148 164 179 175 163 173 195 197 196 188 179 178 177 173 154 149 148 127 93 89 53 70 32 33 42 31 42 33 25 19 15
123 129 103 30 354 297 305 312 48 137 66 95 49 16 172 174 150 146 156 182 189 187 201 195 192 195 202 190 185 186 182 168 164 157 144 126 103 107 67 56 50 45 43 38 32 22 21 11 16
106 63 153 178 260 291 295 313 2 37 66 71 82 23 187 165 154 157 163 172 194 196 214 191 174 177 180 169 175 189 180 179 170 153 134 127 139 104 84 23 29 32 19 19 13 2 5 352 352
114 341 202 218 193 199 255 294 69 355 93 81 112 153 169 168 167 169 176 178 188 197 198 187 169 167 156 169 177 183 193 180 168 156 143 148 144 153 21 1 344 345 347 350 357 341 341 338 335
160 191 194 224 222 212 214 255 188 184 123 156 170 187 180 180 187 178 186 186 189 193 182 194 180 176 185 178 176 197 177 175 171 161 153 129 152 176 285 332 353 310 321 295 337 340 322 318 315
127 215 176 235 228 204 224 244 250 188 204 199 199 171 170 181 191 192 192 182 185 172 176 180 176 170 182 179 169 173 180 181 192 186 169 187 204 211 209 241 292 287 287 303 307 299 305 317 299
162 190 199 223 250 255 246 261 162 91 115 155 164 164 172 183 187 193 200 188 184 169 162 176 182 182 183 182 186 207 189 194 197 203 202 211 224 229 234 240 255 263 280 285 292 291 309 317 311
32 181 205 243 201 256 293 7 100 144 145 154 167 173 176 186 181 178 158 172 179 172 165 175 183 175 178 179 196 212 194 188 198 218 224 226 257 237 275 254 267 277 294 300 307 307 314 312 314
340 43 44 34 13 20 357 334 186 163 138 153 160 156 185 172 175 172 170 162 180 183 181 200 180 192 200 209 216 210 194 204 219 228 228 259 277 249 286 257 275 299 316 342 338 307 294 294 295
31 48 9 5 328 226 319 292 296 212 181 200 170 161 151 151 161 170 171 179 171 181 193 206 218 208 225 222 214 209 212 216 225 237 258 270 261 275 258 278 300 318 356 318 292 292 294 297 303
14 276 305 303 306 343 150 256 272 237 220 225 169 162 155 150 164 173 171 182 182 183 196 209 216 227 218 216 225 222 221 229 246 260 247 240 271 298 298 320 330 6 307 286 288 297 303 306 311
269 287 7 274 251 250 299 283 248 229 237 216 144 118 114 112 175 170 171 169 170 184 191 194 201 212 224 224 211 206 215 227 240 240 212 236 273 259 77 350 176 250 272 282 289 296 314 318 319
271 263 271 267 209 225 237 251 253 234 239 73 84 92 159 214 181 160 169 184 188 193 201 209 212 211 210 178 182 182 197 206 204 198 221 196 123 138 202 254 257 275 296 299 306 315 320 327 338
243 250 260 266 227 201 233 239 246 302 122 129 104 96 101 122 354 160 168 179 200 204 195 188 196 187 159 155 151 162 160 167 165 161 172 139 151 211 253 271 284 297 309 298 310 321 330 344 3
247 237 264 304 303 266 235 321 123 99 107 119 120 129 149 113 248 216 171 178 186 187 173 174 162 155 160 153 163 165 169 170 168 164 159 169 221 291 295 306 309 345 326 309 323 329 347 346 358
256 304 345 332 334 293 314 285 211 169 110 167 165 186 173 157 175 200 173 186 186 176 165 172 171 162 156 160 162 173 168 170 165 155 161 224 277 304 309 332 336 343 331 315 329 350 350 2 1
261 336 287 286 286 324 296 75 242 105 4 301 267 228 192 157 165 177 200 196 165 167 170 186 185 165 157 168 163 173 179 161 169 168 205 227 296 282 289 312 328 335 326 322 328 353 3 6 352
303 329 335 318 291 347 263 172 358 350 303 356 359 344 224 178 171 178 216 200 164 169 180 186 179 161 151 157 158 162 157 159 149 143 147 116 252 233 264 301 320 327 319 319 323 342 346 352 351
12 3 327 335 348 247 359 79 230 338 348 356 6 19 166 196 164 237 211 175 161 178 181 185 169 143 142 143 153 162 151 150 159 193 192 228 258 211 260 307 316 319 320 324 326 327 340 324 328
276 157 241 293 272 290 350 101 283 249 343 353 37 54 69 40 187 209 186 174 166 175 172 164 145 138 147 143 118 131 139 150 241 277 279 260 249 271 300 301 305 316 321 325 325 320 323 317 320
247 263 203 223 356 12 237 55 350 351 355 10 33 25 21 2 219 322 175 174 172 173 167 150 140 144 149 150 104 131 52 284 283 292 315 226 232 251 279 286 309 323 323 324 326 318 321 323 310
17 266 350 34 224 272 274 302 207 328 359 5 7 15 45 41 49 330 191 161 160 165 153 149 143 135 148 190 159 182 199 289 339 333 330 280 275 288 313 320 320 329 331 326 319 311 316 321 319
318 317 353 111 137 185 253 233 353 24 56 359 7 74 79 125 100 26 59 134 140 135 148 147 168 158 165 190 184 183 187 225 299 323 320 278 281 297 307 313 310 310 326 322 304 302 315 317 323
254 232 139 126 282 209 184 207 252 225 356 269 84 114 121 113 124 157 135 127 133 152 169 171 177 179 177 190 202 207 220 250 301 323 328 294 272 285 290 295 297 298 308 313 309 307 308 309 308